Tracking 28799 objects as of 18-Apr-2024
HD Live streaming from Space Station
objects crossing your sky now

FREGAT DEB

Track FREGAT DEB now!
10-day predictions


NORAD ID: 45822
Int'l Code: 2011-037BG
Perigee: 534.6 km
Apogee: 2,850.2 km
Inclination: 51.5 °
Period: 120.1 minutes
Semi major axis: 8063 km
RCS: Unknown
Launch date: July 18, 2011
Source: Commonwealth of Independent States (former USSR) (CIS)
Launch site: TYURATAM MISSILE AND SPACE COMPLEX (TTMTR)

Note: This is SATELLITE DEBRIS
Your satellite tracking list
Your tracking list is empty




NASA's NSSDC Master Catalog

Two Line Element Set (TLE):
1 45822U 11037BG  24108.58432573  .00052472  00000-0  22568-1 0  9999
2 45822  51.4554 236.9019 1435861 340.6422  14.4811 11.99025073163732
Source of the keplerian elements: AFSPC